EW0772 Weather Reports


Display with metric or nautical units.
time (UTC)temp
F
wind
direction
speed
MPH
gust
MPH
rain 1hr
in
rain 24hr
in
rain mn
in
humidity
%
barometer
mb
20260502193028 95 73 2.0 13.0 0.00 0.00 0.00 8 1008.6
20260502191522 96 355 1.0 7.0 0.00 0.00 0.00 9 1008.7
20260502190029 95 170 0.0 9.0 0.00 0.00 0.00 9 1009.0
20260502184521 94 145 0.0 5.0 0.00 0.00 0.00 10 1009.2
20260502183018 95 123 3.0 7.0 0.00 0.00 0.00 9 1009.3
20260502181515 93 217 0.0 4.0 0.00 0.00 0.00 10 1009.5
20260502163114 0 0.0 0.0 0.00 0.00 0.00 1010.3
20260502161554 0 0.0 0.0 0.00 0.00 0.00 1010.3
20260502151535 0 0.0 0.0 0.00 0.00 0.00 1010.3
20260502123048 0 0.0 0.0 0.00 0.00 0.00 1009.0
20260502121542 0 0.0 0.0 0.00 0.00 0.00 1009.0
20260502114555 0 0.0 0.0 0.00 0.00 0.00 1008.8
20260502113030 0 0.0 0.0 0.00 0.00 0.00 1008.8
20260502111525 0 0.0 0.0 0.00 0.00 0.00 1008.8
20260502110021 0 0.0 0.0 0.00 0.00 0.00 1008.7
20260502104520 0 0.0 0.0 0.00 0.00 0.00 1008.5
20260502103012 0 0.0 0.0 0.00 0.00 0.00 1008.5
20260502101508 0 0.0 0.0 0.00 0.00 0.00 1008.5
20260502071514 0 0.0 0.0 0.00 0.00 0.00 1008.4
20260502070010 0 0.0 0.0 0.00 0.00 0.00 1008.3
20260502064505 0 0.0 0.0 0.00 0.00 0.00 1008.2
20260502063003 0 0.0 0.0 0.00 0.00 0.00 1008.2
20260502061558 0 0.0 0.0 0.00 0.00 0.00 1008.2
20260502060053 0 0.0 0.0 0.00 0.00 0.00 1008.0
20260502054549 0 0.0 0.0 0.00 0.00 0.00 1008.1
20260502053055 84 121 0.0 7.0 0.00 0.00 0.00 23 1008.2
20260502051546 86 115 4.0 22.0 0.00 0.00 0.00 22 1007.9
20260502050050 86 109 9.0 23.0 0.00 0.00 0.00 22 1007.7
20260502044544 86 115 10.0 19.0 0.00 0.00 0.00 23 1007.6
20260502043112 86 98 3.0 13.0 0.00 0.00 0.00 23 1007.5
20260502041555 87 117 0.0 3.0 0.00 0.00 0.00 21 1007.3
20260502040043 88 106 0.0 0.0 0.00 0.00 0.00 18 1007.3
20260502034544 89 153 2.0 15.0 0.00 0.00 0.00 17 1007.0
20260502033042 89 123 0.0 14.0 0.00 0.00 0.00 16 1006.8
20260502031542 88 155 1.0 9.0 0.00 0.00 0.00 17 1006.4
20260502030047 88 138 0.0 3.0 0.00 0.00 0.00 18 1006.1
20260502024540 88 100 0.0 0.0 0.00 0.00 0.00 19 1005.9
20260502023040 89 287 0.0 0.0 0.00 0.00 0.00 18 1005.7
20260502021539 89 360 0.0 3.0 0.00 0.00 0.00 18 1005.4
20260502020039 91 360 3.0 7.0 0.00 0.00 0.00 16 1005.2
20260502014540 92 360 4.0 8.0 0.00 0.00 0.00 15 1005.1
20260502013040 92 360 5.0 10.0 0.00 0.00 0.00 15 1005.1
20260502011538 93 360 7.0 10.0 0.00 0.00 0.00 14 1005.2
20260502010037 93 360 6.0 10.0 0.00 0.00 0.00 14 1005.1
20260502004542 94 360 3.0 11.0 0.00 0.00 0.00 13 1005.2
20260502003036 94 360 8.0 11.0 0.00 0.00 0.00 13 1005.2
20260502001535 95 85 7.0 14.0 0.00 0.00 0.00 12 1005.2
20260502000035 95 80 4.0 13.0 0.00 0.00 0.00 13 1005.3
20260501234533 94 360 7.0 12.0 0.00 0.00 0.00 13 1005.3
20260501233034 94 360 8.0 13.0 0.00 0.00 0.00 13 1005.5
20260501231530 94 360 8.0 14.0 0.00 0.00 0.00 14 1005.5
20260501230030 94 85 8.0 14.0 0.00 0.00 0.00 15 1005.7
20260501224525 94 70 4.0 12.0 0.00 0.00 0.00 14 1005.8
20260501223023 94 83 7.0 13.0 0.00 0.00 0.00 15 1006.0
20260501221522 93 86 6.0 12.0 0.00 0.00 0.00 17 1006.3
20260501220028 92 92 8.0 13.0 0.00 0.00 0.00 16 1006.6
20260501214517 91 360 8.0 16.0 0.00 0.00 0.00 21 1006.9
20260501213017 91 15 5.0 14.0 0.00 0.00 0.00 24 1007.2
20260501211515 91 74 6.0 16.0 0.00 0.00 0.00 24 1007.3
20260501210014 90 360 8.0 14.0 0.00 0.00 0.00 27 1007.6
20260501204534 90 360 7.0 15.0 0.00 0.00 0.00 26 1007.7
20260501203013 90 360 7.0 14.0 0.00 0.00 0.00 26 1007.7
20260501201513 90 360 6.0 12.0 0.00 0.00 0.00 27 1007.8
20260501200008 89 72 6.0 13.0 0.00 0.00 0.00 26 1008.0
20260501194507 89 82 4.0 11.0 0.00 0.00 0.00 26 1008.2